{"data":{"norad_id":67819,"epoch":"2026-05-25T01:16:40.494144Z","epoch_age_seconds":70693,"freshness":"FRESH","line1":"1 67819U 26032Y   26145.05324646  .00011155  00000+0  34723-3 0  9996","line2":"2 67819  97.2851 333.1494 0001573  95.6775 264.4647 15.33456479 16666","mean_motion":15.33456479,"eccentricity":0.0001573,"inclination_deg":97.2851,"raan_deg":333.1494,"arg_perigee_deg":95.6775,"mean_anomaly_deg":264.4647,"bstar":0.00034723,"rev_number":1666,"period_min":93.905501702862,"perigee_km":464.4325157442,"apogee_km":466.58552678249,"semimajor_km":6843.6460212633,"source":"CELESTRAK","updated_at":"2026-05-25T13:38:21.696704Z"}}